This demonstration page uses our WeatherBlox Daily Observations layout. Learn more.

Left ArrowRight Arrow

Hourly Observations for July 5, 2017

Temp ( °F °C ) Dew Point ( °F °C ) Humidity (%) Winds ( mph kmh ) Pressure ( in mb ) Visibility ( mi km ) Precip ( " mm )
12:53 am 00:53 Mostly Clear with Mist and Fog 70 21.1 69 20.6 97 97 N N/A 30.08 1019 5 8 N/A
1:53 am 01:53 Mostly Cloudy with Mist and Fog 69 20.6 68 20 96 96 NE 3 6 30.07 1018 6 10 N/A
2:53 am 02:53 Clear with Mist and Fog 68 20 68 20 100 100 N N/A 30.06 1018 5 8 N/A
3:53 am 03:53 Clear with Mist and Fog 67 19.4 67 19.4 100 100 NNW 3 6 30.07 1018 5 8 N/A
4:53 am 04:53 Clear 66 18.9 66 18.9 100 100 N N/A 30.09 1019 7 11 N/A
5:53 am 05:53 Clear with Mist and Fog 67 19.4 66 18.9 97 97 N N/A 30.10 1019 6 10 N/A
6:53 am 06:53 Sunny 67 19.4 66 18.9 97 97 N N/A 30.11 1020 7 11 N/A
7:53 am 07:53 Sunny 70 21.1 65 18.3 84 84 N N/A 30.11 1020 10 16 N/A
8:53 am 08:53 Sunny 72 22.2 65 18.3 79 79 E 5 7 30.12 1020 10 16 N/A
9:53 am 09:53 Sunny 74 23.3 66 18.9 76 76 N N/A 30.12 1020 10 16 N/A
10:53 am 10:53 Sunny 76 24.4 67 19.4 74 74 N N/A 30.12 1020 10 16 N/A
11:53 am 11:53 Sunny 79 26.1 68 20 69 69 ENE 3 6 30.12 1020 10 16 N/A
12:53 pm 12:53 Sunny 82 27.8 69 20.6 65 65 N N/A 30.10 1019 10 16 N/A
1:53 pm 13:53 Mostly Sunny 85 29.4 70 21.1 61 61 VRB 5 7 30.09 1019 10 16 N/A
2:53 pm 14:53 Mostly Sunny 86 30 70 21.1 59 59 E 3 6 30.08 1019 10 16 N/A
3:53 pm 15:53 Partly Cloudy 85 29.4 69 20.6 59 59 E 6 9 30.06 1018 10 16 N/A
4:53 pm 16:53 Partly Cloudy 86 30 68 20 55 55 ENE 5 7 30.05 1018 10 16 N/A
5:53 pm 17:53 Mostly Cloudy 84 28.9 70 21.1 63 63 ENE 7 11 30.04 1017 10 16 N/A
6:53 pm 18:53 Cloudy 83 28.3 70 21.1 65 65 ENE 6 9 30.04 1017 10 16 N/A
7:53 pm 19:53 Cloudy 80 26.7 72 22.2 76 76 ENE 6 9 30.04 1017 10 16 0.02 0.51
8:53 pm 20:53 Partly Cloudy 77 25 72 22.2 85 85 SSE 5 7 30.04 1017 10 16 N/A
9:53 pm 21:53 Clear with Light Rain 73 22.8 72 22.2 96 96 N N/A 30.04 1017 10 16 N/A
10:53 pm 22:53 Clear 73 22.8 71 21.7 94 94 N N/A 30.05 1018 10 16 N/A
11:53 pm 23:53 Mostly Clear 71 21.7 71 21.7 100 100 N N/A 30.05 1018 9 14 N/A

Powered by AerisWeather